This is the latest recevied weather packets stored in our database for station/object K1WJY. If no packets are shown the sender has not sent any weather packets the latest 10 day(s).
| Time | Temp. | Humidity | Pressure | Rain* | Wind** | Luminosity | Snow |
|---|---|---|---|---|---|---|---|
| 1788100578 | 26.11° C | 58% | 1019.2 hPa | 0 mm | - | 699 W/m² | - |
| 1788100276 | 26.11° C | 57% | 1019.1 hPa | 0 mm | - | 696 W/m² | - |
| 1788099972 | 25.56° C | 60% | 1018.9 hPa | 0 mm | - | 662 W/m² | - |
| 1788099666 | 25° C | 61% | 1019 hPa | 0 mm | - | 654 W/m² | - |
| 1788099362 | 25.56° C | 62% | 1018.9 hPa | 0 mm | - | 630 W/m² | - |
| 1788099057 | 25° C | 62% | 1019 hPa | 0 mm | - | 606 W/m² | - |
| 1788098757 | 24.44° C | 63% | 1019.1 hPa | 0 mm | - | 649 W/m² | - |
| 1788098453 | 25° C | 63% | 1019.3 hPa | 0 mm | - | 640 W/m² | - |
| 1788098147 | 24.44° C | 65% | 1019.4 hPa | 0 mm | - | 617 W/m² | - |
| 1788097842 | 24.44° C | 64% | 1019.2 hPa | 0 mm | - | 590 W/m² | - |
| 1788097539 | 23.89° C | 67% | 1019.1 hPa | 0 mm | - | 573 W/m² | - |
| 1788097233 | 23.33° C | 67% | 1019.4 hPa | 0 mm | - | 571 W/m² | - |
| 1788096929 | 23.33° C | 68% | 1019.3 hPa | 0 mm | - | 448 W/m² | - |
| 1788096624 | 23.33° C | 70% | 1019.2 hPa | 0 mm | - | 571 W/m² | - |
| 1788096320 | 22.78° C | 70% | 1019.3 hPa | 0 mm | - | 564 W/m² | - |
| 1788096020 | 22.78° C | 71% | 1019.3 hPa | 0 mm | - | 539 W/m² | - |
| 1788095719 | 22.22° C | 73% | 1019.6 hPa | 0 mm | - | 487 W/m² | - |
| 1788095414 | 22.22° C | 74% | 1019.6 hPa | 0 mm | - | 436 W/m² | - |
| 1788095109 | 22.22° C | 75% | 1019.7 hPa | 0 mm | - | 410 W/m² | - |
| 1788094810 | 21.67° C | 78% | 1019.6 hPa | 0 mm | - | 400 W/m² | - |
| 1788094504 | 21.67° C | 78% | 1019.7 hPa | 0 mm | - | 370 W/m² | - |
| 1788094203 | 21.67° C | 78% | 1019.6 hPa | 0 mm | - | 350 W/m² | - |
| 1788093897 | 21.67° C | 80% | 1019.8 hPa | 0 mm | - | 325 W/m² | - |
| 1788093593 | 20.56° C | 82% | 1019.7 hPa | 0 mm | - | 311 W/m² | - |
| 1788093290 | 20.56° C | 84% | 1019.6 hPa | 0 mm | - | 143 W/m² | - |
* Rain latest hour (hover to see other rain measurements)
** Current wind speed in m/s (hover to see current wind gust speed)